Location: Asheville, NC
(35.6000°N, 82.5500°W)
Time: 19:45:22
(UTC-04:00)

Vanguard 1 - Pass Details

Date: 16 March 2018
Orbit: 650 x 3833 km, 34.3° (Epoch: 23 June)

Event Time Altitude Azimuth Distance (km) Brightness Sun altitude
Rises 06:30:30 0° 197° (SSW) 5,950 13.8 -14.8°
Reaches altitude 10° 06:34:42 10° 187° (S) 5,369 13.7 -14.0°
Maximum altitude 06:48:57 31° 132° (SE) 4,897 14.0 -11.1°
Drops below altitude 10° 07:07:09 10° 81° (E) 6,938 16.1 -7.4°
Sets 07:13:30 0° 73° (ENE) 7,889 16.6 -6.1°
